Dewpoint
32 31 31 31 30 30 26 23 20 21 21 23 24 24 24 23 22 20 19 17 17 17 19 20 20 24 26 28 33 33 33 33 33 34 34 34 34 32 34 33 31 32 32 32
32 31 30 29 31 30 31 32 29 29 30 30 28 27 24 23 21 20 19 18 17 18 19 19 19 24 27 32 34 34 33 33 32 33 34 34 34 33 31 31 29 28 30 31
28 32 28 26 31 33 32 33 33 31 34 35 27 24 24 22 21 20 20 17 17 18 19 19 20 27 29 34 33 32 33 33 31 33 34 34 34 31 31 30 28 29 29 31
29 31 20 29 36 35 33 33 33 32 33 35 29 26 26 25 22 22 18 17 17 18 19 19 23 28 31 34 35 34 33 32 31 33 33 33 33 31 31 30 29 30 28 30
28 25 29 30 34 33 31 31 33 32 32 35 35 32 28 28 25 19 17 18 17 18 19 20 25 29 32 36 36 34 33 32 30 33 32 32 32 32 31 30 30 31 31 30
29 24 21 31 35 37 36 27 32 34 35 35 34 32 29 29 25 19 18 18 18 18 20 21 27 30 34 36 36 34 33 33 31 33 33 32 31 32 32 31 31 31 31 32
26 25 30 36 37 38 27 27 34 37 37 37 33 35 35 27 23 21 19 18 19 19 20 22 27 30 33 35 35 35 33 33 31 31 33 33 32 32 32 31 31 31 31 31
29 25 22 37 37 32 33 36 37 38 38 38 36 35 28 26 24 22 20 20 20 19 21 23 27 29 34 35 36 35 35 33 32 31 31 32 32 32 32 31 30 30 31 30
31 31 37 39 36 38 39 39 39 40 40 41 36 33 28 27 26 23 22 21 21 20 22 25 26 31 34 36 36 35 34 33 33 33 31 31 31 31 31 31 30 30 30 29
35 36 37 38 40 40 41 40 41 42 42 40 33 29 28 29 25 24 23 23 22 21 23 25 26 30 34 37 36 35 33 33 33 32 32 32 31 31 31 30 30 30 29 29
36 37 38 39 39 40 41 41 41 42 42 33 29 29 29 28 27 28 26 25 24 23 24 27 28 27 33 35 36 34 33 33 32 32 32 32 33 33 32 32 32 31 31 30
35 38 38 39 40 41 41 41 41 41 33 32 32 30 30 29 30 30 28 27 26 26 25 27 30 29 31 34 36 35 32 32 32 32 32 32 32 32 34 34 34 35 34 32
38 40 40 41 41 40 38 39 38 32 32 32 33 32 32 31 32 32 32 29 28 28 29 28 30 33 32 33 33 35 33 32 32 32 32 31 31 31 31 33 35 34 34 35
41 41 40 42 41 40 39 38 38 38 36 36 36 36 35 32 32 32 32 30 29 30 31 30 28 32 36 34 32 32 34 33 32 32 32 31 31 31 31 31 31 31 33 34
41 41 41 42 41 41 41 41 40 41 40 39 40 40 34 33 35 34 32 32 30 29 30 31 29 30 35 37 33 32 30 33 34 33 32 32 32 31 31 31 31 31 32 33
40 40 41 41 42 42 41 41 41 42 42 40 38 38 41 40 40 37 36 36 37 38 38 35 30 31 33 36 35 34 32 30 33 33 33 32 32 31 31 31 30 30 30 31
37 39 40 40 41 41 41 41 42 42 43 43 43 42 42 41 42 40 40 41 41 40 40 37 34 32 32 35 35 32 34 32 29 33 33 33 32 31 31 31 30 30 30 31
37 38 40 40 39 38 38 39 41 42 42 43 44 42 41 42 42 42 41 40 40 40 40 39 38 37 35 34 37 36 33 33 33 29 32 33 33 33 32 31 31 31 31 31
34 34 36 37 37 37 38 38 39 40 41 40 40 40 37 36 38 40 38 38 38 38 39 39 38 39 38 37 36 37 36 31 31 29 30 30 32 33 33 32 32 31 31 31
33 33 34 34 35 36 36 38 38 38 39 39 38 38 39 37 36 37 37 37 37 38 37 38 39 39 39 39 39 37 36 36 30 28 27 27 27 27 30 33 32 32 32 32
34 34 34 33 35 37 37 38 37 37 37 37 37 36 38 38 38 37 36 35 37 36 36 37 37 37 40 40 42 42 39 36 35 32 28 29 29 28 27 27 28 29 31 31
37 36 37 36 35 36 38 39 39 38 38 38 37 37 38 38 38 38 37 36 38 35 35 35 36 36 38 40 41 42 42 40 38 36 34 32 33 32 29 28 28 29 28 28
35 35 35 36 36 37 38 39 39 39 39 38 38 38 38 39 39 36 36 38 37 36 35 35 34 35 36 38 38 39 39 39 38 37 35 33 32 32 32 32 31 29 27 26
28 29 31 37 38 38 38 39 39 40 40 40 40 40 40 38 39 40 39 38 37 36 36 36 36 35 35 35 35 36 37 36 36 36 37 36 35 34 32 31 31 31 30 30
27 32 34 33 33 35 37 36 33 32 34 36 40 42 42 41 40 39 37 37 36 36 36 37 36 36 36 35 35 34 34 34 35 35 35 35 35 35 35 34 33 31 31 30
28 30 32 34 35 36 36 33 29 26 26 32 38 41 40 38 38 38 36 35 35 34 34 35 35 35 36 37 36 35 35 35 34 33 34 34 34 34 33 34 34 33 32 31
31 35 35 34 32 31 32 31 27 28 33 34 35 38 36 34 34 34 33 32 32 32 33 33 34 34 34 35 36 36 35 36 35 35 34 33 33 33 33 33 34 34 34 33
Wind_Speed
17 19 21 16 14 18 15 10 13 5 4 2 5 5 7 10 13 15 16 15 15 17 13 13 14 7 7 9 13 9 10 10 12 12 12 12 13 11 10 9 9 9 11 10
11 15 19 20 20 20 19 14 11 15 11 13 3 6 12 9 11 15 17 15 16 14 13 13 15 6 9 13 14 11 12 13 14 13 13 13 10 11 9 10 10 10 11 10
5 11 12 13 8 10 9 13 4 11 9 15 6 8 6 7 10 14 16 15 15 12 13 15 13 9 11 14 14 12 11 13 14 13 14 14 10 10 11 11 9 10 11 11
9 7 5 3 4 4 7 10 12 11 16 18 3 5 6 6 9 14 13 14 12 11 12 15 10 8 11 14 12 12 12 14 14 15 14 13 9 10 13 10 9 10 9 11
6 11 6 0 1 1 3 8 13 15 15 13 15 10 4 11 10 10 12 13 10 10 11 14 8 9 13 12 10 11 12 14 16 14 14 13 12 9 10 10 9 8 6 9
2 6 4 0 2 2 3 5 5 11 15 13 15 17 11 11 11 12 14 11 13 10 11 14 6 9 15 12 11 12 12 13 15 14 13 13 11 11 9 8 10 10 9 8
7 5 5 3 2 1 1 1 11 13 18 15 12 8 9 9 13 12 10 14 14 12 13 13 5 10 16 12 11 10 10 11 15 15 13 14 13 10 11 10 11 15 13 11
3 5 4 1 3 1 1 7 13 19 18 15 11 12 9 11 12 13 14 15 15 13 14 13 7 12 16 13 7 8 9 10 12 16 13 14 15 13 13 10 11 12 11 12
3 3 1 2 0 3 8 13 15 12 20 16 9 7 8 11 13 13 11 13 14 12 15 14 9 10 18 15 10 9 9 10 10 11 17 16 16 13 11 11 11 12 12 12
2 4 1 3 6 8 12 13 13 18 18 12 7 7 9 12 11 11 12 13 13 13 16 16 9 8 12 16 12 9 10 10 10 11 13 16 14 12 13 12 11 10 10 10
6 3 5 9 8 9 17 18 15 16 14 6 10 7 10 12 11 13 11 13 13 13 15 16 11 11 8 15 14 10 9 10 11 10 11 11 12 13 13 12 14 12 12 9
3 2 3 11 17 23 19 18 13 10 10 13 12 11 12 10 12 14 12 13 14 15 15 15 14 9 7 9 14 12 10 10 9 9 8 9 10 12 14 16 22 19 18 12
2 4 9 21 23 18 6 5 6 15 16 15 11 11 10 10 12 13 13 13 14 13 14 14 15 14 7 7 13 15 11 9 8 8 9 9 10 11 12 11 12 17 15 11
13 10 5 9 11 18 19 16 20 17 16 13 12 10 9 11 10 13 15 13 14 13 14 15 15 17 14 5 10 13 12 10 8 7 7 8 9 9 10 12 13 12 11 16
8 9 7 8 15 18 17 17 22 19 16 16 15 13 12 12 14 13 13 13 15 15 16 15 17 17 15 12 8 11 12 12 9 8 7 6 7 9 10 12 12 11 11 11
5 8 10 13 12 14 15 16 17 16 16 16 16 16 12 13 16 14 15 14 17 17 17 17 16 17 16 13 12 8 8 11 13 9 8 9 9 8 9 10 10 11 12 12
5 6 7 11 13 15 15 13 12 13 13 14 16 14 15 13 16 16 16 14 14 16 16 19 16 15 16 15 12 12 9 9 10 10 11 9 9 9 8 9 9 10 10 10
13 11 12 11 12 14 15 14 13 13 14 11 12 16 18 17 14 14 14 15 16 16 20 19 18 15 15 16 12 11 11 11 9 11 10 10 10 9 9 9 9 8 8 9
14 14 14 14 14 13 13 14 14 13 15 14 16 17 17 19 16 13 15 17 20 17 19 20 21 17 16 17 13 10 11 12 12 11 11 11 12 10 10 10 9 8 8 9
14 14 16 16 15 16 16 13 14 17 14 16 17 18 17 20 18 16 12 18 17 15 16 18 18 17 16 17 15 11 12 12 12 10 10 11 12 12 11 11 10 10 9 8
12 12 12 14 12 11 13 14 17 17 16 17 18 18 16 12 15 18 20 18 20 17 17 19 18 18 14 15 14 14 13 13 12 11 10 10 10 10 10 9 9 9 9 8
8 6 8 9 8 7 7 10 14 15 16 17 17 16 16 17 14 11 14 13 11 17 15 17 18 22 20 19 15 14 14 15 14 12 11 10 8 8 7 7 8 7 7 7
8 6 6 7 10 9 7 10 12 16 17 16 16 16 14 12 13 15 15 15 12 14 11 14 19 21 20 17 16 16 15 16 15 14 11 11 9 8 7 9 7 6 7 8
7 4 2 8 11 13 12 12 11 11 13 11 12 12 14 13 12 11 10 11 15 13 15 15 16 19 16 15 15 15 15 15 15 13 12 11 11 11 9 8 8 8 7 7
7 9 17 17 19 14 16 13 13 13 14 14 13 10 12 11 11 9 11 11 15 14 13 17 19 18 12 13 14 15 13 13 13 13 13 13 13 12 11 11 9 7 6 6
10 12 16 18 16 14 12 13 13 11 11 11 13 10 12 12 12 11 12 13 13 14 14 14 15 16 15 13 13 15 11 11 12 12 12 11 12 12 13 12 10 10 9 7
14 18 17 15 12 13 12 10 10 10 10 9 7 11 9 11 12 11 12 13 13 14 14 14 13 13 15 15 15 14 13 11 11 11 11 12 11 12 12 12 12 10 9 9
Wind_Direction
94 95 83 60 52 57 75 116 102 142 38 331 150 66 35 21 0 348 334 337 338 340 358 350 345 5 17 3 343 353 346 343 345 334 331 323 328 329 330 331 335 328 307 293
88 94 92 74 38 51 40 14 41 53 31 10 27 36 22 357 344 340 338 340 339 355 3 355 353 28 13 2 353 3 351 351 350 343 336 333 333 341 345 350 358 348 339 330
127 144 88 72 17 49 82 37 11 39 316 335 1 25 335 332 346 339 352 352 355 7 8 0 358 38 18 4 4 360 356 357 354 348 340 341 359 354 348 359 360 354 353 348
151 125 82 195 234 257 76 41 22 348 354 2 341 346 319 327 336 3 10 360 11 12 14 3 20 32 18 11 6 360 2 359 353 350 350 352 359 358 355 5 360 3 9 2
131 86 102 142 56 90 90 26 4 343 348 348 335 334 347 358 10 34 11 15 17 24 21 8 40 18 14 7 6 11 8 2 354 355 353 358 0 3 353 13 10 10 14 20
110 92 121 179 89 153 9 45 327 315 323 337 340 2 344 337 27 29 31 26 23 33 20 15 44 15 14 9 11 12 356 358 355 359 353 358 2 2 3 12 2 360 21 48
81 95 62 12 28 330 147 334 302 310 309 299 337 322 300 18 37 38 36 25 23 40 25 12 28 10 12 10 20 9 358 2 10 8 356 360 2 0 21 27 15 19 45 43
70 99 119 12 145 189 310 285 283 295 301 302 329 343 37 36 34 33 34 23 23 38 22 13 29 16 11 11 20 9 11 18 18 11 11 9 8 12 26 32 23 17 30 46
40 116 269 302 72 304 285 274 284 292 305 308 333 27 47 35 41 34 31 24 28 39 22 18 35 23 14 360 9 19 25 28 22 16 16 17 14 17 17 20 27 17 39 58
109 4 343 269 261 265 281 284 305 303 302 292 31 85 50 49 43 27 28 25 33 36 25 21 30 21 18 4 10 28 27 29 19 27 26 24 18 14 29 29 35 34 37 64
70 32 323 273 267 294 301 305 304 308 315 70 97 67 56 55 34 19 31 32 41 39 28 22 19 21 8 15 15 38 29 32 28 28 32 26 11 13 24 31 34 31 46 80
94 10 301 283 302 308 290 287 298 323 64 51 69 84 70 54 41 37 42 39 44 39 30 18 17 11 9 15 23 27 38 35 36 29 27 31 23 9 15 36 46 42 42 60
276 318 281 283 296 330 66 21 54 81 87 80 72 81 68 58 46 41 40 45 46 43 32 20 18 20 3 29 30 31 37 39 41 45 33 36 34 30 19 10 21 34 47 67
273 265 309 351 353 12 46 57 63 56 58 55 45 40 58 62 45 45 43 49 43 38 31 23 18 16 12 25 43 35 38 44 45 47 50 37 38 28 23 25 24 22 11 43
50 64 38 9 26 33 36 43 49 37 37 35 32 51 67 55 44 57 56 53 44 38 28 24 22 15 12 28 48 44 42 37 35 44 48 48 33 36 34 23 27 28 25 28
16 61 37 41 38 40 41 40 54 38 34 32 32 23 28 52 57 57 48 43 44 31 15 15 21 7 11 30 45 48 45 44 42 41 41 43 47 42 39 42 37 26 34 28
101 51 42 42 43 43 41 37 40 33 31 36 34 27 35 43 50 43 29 23 36 35 24 21 9 5 15 21 35 48 52 51 57 54 51 44 49 47 42 43 44 45 45 32
93 77 77 72 65 56 46 43 43 38 34 32 37 35 37 46 49 36 25 18 23 24 19 6 359 357 9 16 22 38 49 53 53 55 53 50 48 47 53 52 46 47 44 40
90 83 83 78 79 79 70 60 55 51 48 46 53 53 51 44 36 35 31 30 23 13 3 358 355 357 2 3 14 37 44 47 53 53 58 57 57 51 52 57 56 51 48 51
104 98 95 91 89 88 81 69 66 61 54 59 62 58 54 42 34 32 35 42 27 11 1 357 3 3 357 358 9 33 47 44 45 50 54 56 54 53 56 62 61 55 57 63
132 125 121 116 111 100 91 81 76 71 64 62 63 55 51 47 44 35 32 30 12 11 14 6 8 1 354 358 12 27 33 40 40 35 41 48 51 48 46 43 48 56 57 59
125 126 137 150 129 117 108 93 81 73 63 59 55 54 52 40 34 50 52 36 11 19 24 19 13 7 8 11 11 13 19 28 28 28 28 28 30 28 29 27 31 26 33 51
130 125 109 117 144 144 124 98 87 82 70 61 56 53 55 54 41 32 23 10 18 22 28 26 21 22 20 17 15 15 16 18 21 24 24 22 14 15 13 12 9 13 21 24
112 77 30 90 97 87 86 100 87 73 76 63 57 56 50 44 49 39 36 27 20 18 18 8 8 20 25 30 23 14 15 15 10 8 20 27 27 18 16 5 2 356 353 1
116 88 99 89 83 86 95 93 75 55 57 51 46 55 47 45 59 25 25 22 18 16 7 1 2 3 9 26 24 22 19 18 11 10 7 6 4 5 5 0 359 356 349 344
112 100 99 100 101 98 100 84 75 49 41 44 47 49 42 30 23 30 23 20 17 12 12 0 2 4 2 358 8 8 8 11 9 13 8 1 359 1 356 352 349 345 343 339
112 116 109 98 94 99 94 80 62 42 38 34 38 28 29 25 22 24 17 13 11 7 0 360 1 360 359 356 357 357 355 352 356 356 354 2 1 356 349 345 346 337 328 325